Omak, WA

3:28 AM PDT on May 23, 2017 (GMT -0700)
Omak

Weather History for KOMK - September, 2013

Change the Weather History Date:

Saturday, September 14, 2013

  Actual Average Record
Temperature  
Mean Temperature 80 °F 63 °F  
Max Temperature 94 °F 79 °F 94 °F (2013)
Min Temperature 66 °F 48 °F 30 °F (1947)
Degree Days  
Heating Degree Days 0 3  
Month to date heating degree days 6 34  
Since 1 July heating degree days 6 65  
Cooling Degree Days 15 2  
Month to date cooling degree days 118 44  
Year to date cooling degree days 804 650  
Growing Degree Days 30 (Base 50)    
Moisture  
Dew Point 50 °F    
Average Humidity 43    
Maximum Humidity 63    
Minimum Humidity 22    
Precipitation  
Precipitation 0.00 in 0.02 in 0.30 in (1933)
Month to date precipitation 0.64 0.24  
Year to date precipitation 8.06 9.52  
Sea Level Pressure  
Sea Level Pressure 29.81 in    
Wind  
Wind Speed 9 mph (NNW)    
Max Wind Speed 16 mph    
Max Gust Speed 21 mph    
Visibility 10 miles    
Events      
T = Trace of Precipitation, MM = Missing Value Source: NWS Daily Summary

Daily Weather History Graph

Daily Weather History Graph

Search for Another Location

Airport or City:

Trip Planner

Search our weather history database for the weather conditions in past years. The results will help you decide how hot, cold, wet, or windy it might be!

Date:

Astronomy

Sep. 14, 2013 Rise Set
Actual Time 6:34 AM PDT 7:12 PM PDT
Civil Twilight 6:02 AM PDT 7:43 PM PDT
Nautical Twilight 5:24 AM PDT 8:20 PM PDT
Astronomical Twilight 4:45 AM PDT 9:00 PM PDT
Moon 4:14 PM PDT (9/14) 12:51 AM PDT (9/14)
Length of Visible Light 13h 41m
Length of Day
12h 38m
Waxing Gibbous, 73% of the Moon is Illuminated
Sep 14
Waxing Gibbous
Sep 19
Full
Sep 26
Last Quarter
Oct 4
New
Oct 11
First Quarter

Hourly Weather History & Observations

Time (PDT) Temp. Heat Index Dew Point Humidity Pressure Visibility Wind Dir Wind Speed Gust Speed Precip Events Conditions
12:53 AM 73.9 °F - 45.0 °F 35% 29.77 in 10.0 mi WNW 11.5 mph - N/A   Clear
1:53 AM 72.0 °F - 46.0 °F 40% 29.78 in 10.0 mi NW 10.4 mph - N/A   Clear
2:53 AM 69.1 °F - 46.9 °F 45% 29.78 in 10.0 mi NNW 11.5 mph - N/A   Clear
3:53 AM 69.1 °F - 46.9 °F 45% 29.78 in 10.0 mi NNW 10.4 mph - N/A   Clear
4:53 AM 66.9 °F - 48.0 °F 51% 29.79 in 10.0 mi NNW 12.7 mph - N/A   Clear
5:53 AM 66.0 °F - 48.0 °F 52% 29.81 in 10.0 mi North 11.5 mph - N/A   Clear
6:53 AM 66.0 °F - 48.0 °F 52% 29.83 in 10.0 mi North 12.7 mph - N/A   Clear
7:53 AM 68.0 °F - 48.9 °F 50% 29.85 in 10.0 mi North 12.7 mph - N/A   Clear
8:53 AM 73.0 °F - 50.0 °F 44% 29.86 in 10.0 mi North 13.8 mph - N/A   Clear
9:53 AM 78.1 °F - 50.0 °F 37% 29.87 in 10.0 mi North 13.8 mph - N/A   Clear
10:53 AM 82.0 °F - 50.0 °F 33% 29.86 in 10.0 mi NNE 12.7 mph - N/A   Clear
11:53 AM 84.0 °F - 51.1 °F 32% 29.86 in 10.0 mi North 12.7 mph - N/A   Clear
12:53 PM 89.1 °F - 50.0 °F 26% 29.83 in 10.0 mi NNE 12.7 mph - N/A   Clear
1:53 PM 91.9 °F - 50.0 °F 24% 29.82 in 10.0 mi NNE 8.1 mph - N/A   Clear
2:53 PM 93.9 °F - 48.9 °F 21% 29.80 in 10.0 mi Variable 4.6 mph - N/A   Clear
3:53 PM 93.0 °F - 51.1 °F 24% 29.78 in 10.0 mi East 4.6 mph - N/A   Clear
4:53 PM 91.0 °F - 48.9 °F 23% 29.78 in 10.0 mi Calm Calm - N/A   Clear
5:53 PM 89.1 °F 86.7 °F 53.1 °F 29% 29.78 in 10.0 mi Calm Calm - N/A   Clear
6:53 PM 82.0 °F 81.3 °F 54.0 °F 38% 29.78 in 10.0 mi North 3.5 mph - N/A   Clear
7:53 PM 77.0 °F - 53.1 °F 43% 29.79 in 10.0 mi NW 3.5 mph - N/A   Clear
8:53 PM 77.0 °F - 55.0 °F 47% 29.80 in 10.0 mi NW 9.2 mph - N/A   Clear
9:53 PM 73.9 °F - 53.1 °F 48% 29.80 in 10.0 mi WNW 9.2 mph - N/A   Clear
10:53 PM 70.0 °F - 53.1 °F 55% 29.80 in 10.0 mi Calm Calm - N/A   Clear
11:53 PM 66.9 °F - 53.1 °F 61% 29.80 in 10.0 mi NNW 5.8 mph - N/A   Clear